Location: Artiguedieu
(43.5000°N, 0.5454°E)
Time: 01:35:34
(UTC+00:00)

Transit 2A Rocket - Pass Details

Date: 28 July 2021
Orbit: 586 x 916 km, 66.7° (Epoch: 16 September)

Event Time Altitude Azimuth Distance (km) Brightness Sun altitude
Rises 00:19:35 0° 324° (NW) 3,272 9.0 -27.4°
Reaches altitude 10° 00:21:56 10° 321° (NW) 2,389 8.1 -27.4°
Enters shadow 00:26:47 54° 269° (W) 1,019 5.5 -27.3°
Maximum altitude 00:27:22 57° 244° (WSW) 997 - -27.3°
Drops below altitude 10° 00:33:10 10° 167° (SSE) 2,551 - -27.2°
Sets 00:35:46 0° 163° (SSE) 3,512 - -27.1°
